sat.trackr.live / text

‹ back to catalog

STARLINK-31095

NORAD 58683 · 2023-211S

PAYLOAD ACTIVE UNKNOWN

§ Identity

Operator
Country
US
Launch date
2023-12-29
Launch site
AFETR
Launch vehicle
Mass (kg)
RCS (m²)

Purposes: comms

External: N2YO · Heavens-Above · Gunter

§ Orbital elements

Epoch: 2026-09-19T04:26:41.643744Z

Period
94.27 min
Inclination
43.0030°
Eccentricity
0.0000889
Mean motion
15.27563892 rev/d
Perigee alt
482.5 km
Apogee alt
483.7 km
Semi-major
6,861.2 km
B*
-5.3890e-5
RAAN
72.8264°
Arg perigee
276.8438°
Mean anomaly
83.2313°
Rev number
15,332

§ Raw data

STARLINK-310951 58683U 23211S   26262.18520421 -.00001744  00000+0 -53890-4 0  99962 58683  43.0030  72.8264 0000889 276.8438  83.2313 15.27563892153326

JSON: /api/v1/satellites/58683 · /tle

For live sub-satellite position, see the globe view (requires WebGL).

§ Visibility from observer

Set your observer location to see the next 7 days of passes ≥ 10°. The values pass through the URL so the page stays shareable.

No JS? Fill the form by hand. The geolocation button needs JavaScript.